Regional Weather Roundup
Issued by NWS

Home | Current Version | Previous Version | Graphics & Text | Print | Product List | Glossary On
Versions: 1 2 3 4 5 6 7 8 9 10 11 12 13 14 15 16 17 18 19 20 21 22 23 24 25 26 27 28 29 30 31 32 33 34 35 36 37 38 39 40 41 42 43 44 45 46 47 48 49 50
000
ASUS44 KMEG 161900
RWRTN
TENNESSEE HOURLY STATE WEATHER ROUNDUP
NATIONAL WEATHER SERVICE MEMPHIS TN
200 PM CDT MON OCT 16 2017

TNZ002-004-019-021-049-052-054-088>092-162000-
WEST TENNESSEE

CITY           SKY/WX    TMP DP  RH WIND       PRES   REMARKS
MEMPHIS INTL   SUNNY     66  40  38 N10       30.31F
NWS MEMPHIS      N/A     64 N/A N/A MISG        N/A
JACKSON        SUNNY     65  42  43 NE10      30.31F
$$

TNZ008-025-027-028-033-062-065-066-162000-
NORTH MIDDLE TENNESSEE

CITY           SKY/WX    TMP DP  RH WIND       PRES   REMARKS
NASHVILLE      MOSUNNY   66  41  40 N13       30.29F
CLARKSVILLE    SUNNY     62  40  44 VRB7      30.31F
SMYRNA         MOSUNNY   65  41  41 N17       30.28F
CROSSVILLE     MOSUNNY   57  39  51 NE12G22   30.26F
$$

TNZ061-075-076-078-094-096-097-162000-
SOUTH MIDDLE TENNESSEE

CITY           SKY/WX    TMP DP  RH WIND       PRES   REMARKS
$$

TNZ017-018-042-046-047-162000-
NORTHEAST TENNESSEE

CITY           SKY/WX    TMP DP  RH WIND       PRES   REMARKS
TRI CITIES     PTSUNNY   58  43  57 N6        30.23F
$$

TNZ012-013-036-069-073-074-162000-
CENTRAL EAST TENNESSEE

CITY           SKY/WX    TMP DP  RH WIND       PRES   REMARKS
KNOXVILLE      MOSUNNY   62  46  55 N10       30.23F
OAK RIDGE      SUNNY     64  45  49 NE8       30.25F
$$

TNZ083-085-099-162000-
SOUTHEAST TENNESSEE

CITY           SKY/WX    TMP DP  RH WIND       PRES   REMARKS
CHATTANOOGA    MOSUNNY   66  44  45 N13G25    30.20F
$$

SKY/WX REPORTED AS FAIR MEANS FEW OR NO CLOUDS BELOW
12 THOUSAND FEET.





USA.gov is the U.S. government's official web portal to all federal, state and local government web resources and services.